This demonstration page uses our WeatherBlox Daily Observations layout. Learn more.

Left ArrowRight Arrow

Hourly Observations for June 10, 2016

Temp ( °F °C ) Dew Point ( °F °C ) Humidity (%) Winds ( mph kmh ) Pressure ( in mb ) Visibility ( mi km ) Precip ( " mm )
12:51 am 00:51 Clear 81 27.2 57 13.9 44 44 SSW 3 6 29.78 1009 10 16 0.00 0.03
1:51 am 01:51 Clear 78 25.6 57 13.9 48 48 ESE 8 13 29.80 1009 10 16 0.00 0.00
2:51 am 02:51 Clear 77 25 56 13.3 48 48 N 6 9 29.81 1010 10 16 0.00 0.00
3:51 am 03:51 Clear 79 26.1 52 11.1 39 39 N 9 15 29.78 1009 10 16 0.00 0.00
4:51 am 04:51 Clear 80 26.7 51 10.6 37 37 NNW 17 28 29.78 1008 10 16 0.00 0.00
5:51 am 05:51 Sunny 80 26.7 52 11.1 38 38 NW 15 24 29.81 1010 10 16 0.00 0.00
6:51 am 06:51 Sunny 83 28.3 50 10 32 32 NW 17 28 29.83 1010 10 16 0.00 0.00
7:51 am 07:51 Sunny 86 30 52 11.1 31 31 WNW 18 30 29.84 1010 10 16 0.00 0.00
8:51 am 08:51 Sunny 88 31.1 52 11.1 29 29 WNW 17 28 29.82 1010 10 16 0.00 0.00
9:51 am 09:51 Sunny 90 32.2 52 11.1 27 27 WNW 18 30 29.81 1010 10 16 0.00 0.00
10:51 am 10:51 Sunny 93 33.9 52 11.1 25 25 WNW 16 26 29.79 1009 10 16 0.00 0.00
11:51 am 11:51 Sunny 95 35 50 10 22 22 WNW 15 24 29.78 1008 10 16 0.00 0.00
12:51 pm 12:51 Sunny 98 36.7 45 7.2 16 16 WNW 14 22 29.73 1007 10 16 0.00 0.00
1:51 pm 13:51 Sunny 99 37.2 43 6.1 15 15 W 9 15 29.69 1006 10 16 0.00 0.00
2:51 pm 14:51 Sunny 99 37.2 48 8.9 18 18 W 17 28 29.67 1005 10 16 0.00 0.00
3:51 pm 15:51 Sunny 95 35 50 10 22 22 W 28 44 29.68 1005 10 16 0.00 0.00
4:28 pm 16:28 Sunny with Nearby Thunderstorms 93 33.9 53 11.7 26 26 WNW 28 44 29.62 1003 10 16 0.00 0.00
4:51 pm 16:51 Partly Cloudy with Thunderstorms 90 32.2 53 11.7 28 28 WNW 23 37 29.73 1007 10 16 0.00 0.00
5:05 pm 17:05 Mostly Cloudy with Thunderstorms 87 30.6 47 8.3 25 25 ENE 17 28 29.71 1006 10 16 0.00 0.00
5:21 pm 17:21 Cloudy with Strong Thunderstorms 72 22.2 62 16.7 71 71 SSE 29 46 29.83 1010 3 4 0.03 0.76
5:24 pm 17:24 Cloudy with Strong Thunderstorms 70 21.1 62 16.7 76 76 SSE 28 44 29.85 1011 2 3 0.07 1.78
5:33 pm 17:33 Cloudy with Strong Thunderstorms 66 18.9 62 16.7 87 87 SSE 15 24 29.88 1012 1 1 0.21 5.33
5:48 pm 17:48 Cloudy with Thunderstorms 66 19 63 17 88 88 NE 9 15 29.88 1012 2 3 0.51 12.95
5:51 pm 17:51 Cloudy with Thunderstorms 67 19.4 63 17.2 87 87 NE 8 13 29.86 1011 2 2 0.51 12.95
5:59 pm 17:59 Cloudy with Thunderstorms 69 20.6 63 17.2 81 81 WNW 5 7 29.83 1010 3 5 0.01 0.25
6:18 pm 18:18 Cloudy with Nearby Thunderstorms 70 21.1 65 18.3 84 84 W 16 26 29.83 1010 10 16 0.02 0.51
6:42 pm 18:42 Mostly Cloudy 70 21.1 62 16.7 76 76 W 15 24 29.85 1011 10 16 0.02 0.51
6:51 pm 18:51 Mostly Cloudy with Light Rain 70 21.1 62 16.7 76 76 WNW 16 26 29.84 1011 10 16 0.02 0.51
7:05 pm 19:05 Cloudy 69 20.6 63 17.2 81 81 NNW 16 26 29.85 1011 10 16 0.00 0.03
7:51 pm 19:51 Mostly Clear 70 21.1 61 16.1 73 73 NNW 20 31 29.80 1009 10 16 0.00 0.03
8:51 pm 20:51 Clear 70 21.1 61 16.1 73 73 NNW 14 22 29.81 1010 10 16 0.00 0.00
9:51 pm 21:51 Clear 72 22.2 60 15.6 66 66 NNW 8 13 29.85 1011 10 16 0.00 0.00
10:51 pm 22:51 Partly Cloudy 69 20.6 64 17.8 84 84 SW 8 13 29.86 1011 10 16 0.00 0.00
11:51 pm 23:51 Clear 68 20 64 17.8 87 87 N 9 15 29.84 1010 10 16 0.00 0.00

Powered by AerisWeather